Location: Las Vegas
(36.1750°N, 115.1360°W)
Time: 00:52:06
(UTC-07:00)

Amateur Radio Satellites - All Passes

Search period start: 24 April 2014 00:22
Search period end: 25 April 2014 00:22
Location: Las Vegas, 36.1750°N, 115.1360°W

Satellite Date Start Highest point End Downlink Frequencies (MHz)
Time Altitude Azimuth
UOSAT-12 24 Apr 00:23:22 00:26:44 19° 48° (NE) 00:30:04 437.025 FM, 437.400 FM
KITSAT 1 24 Apr 00:24:38 00:30:24 22° 103° (ESE) 00:36:11 435.175 FM
Sapphire 24 Apr 00:26:24 00:31:11 31° 305° (NW) 00:35:59 437.095 MHz 1200 baud AX-25 AFSK
Oscar 16 24 Apr 00:53:24 00:53:41 10° 90° (E) 00:53:58 437.025 USB, Beacon 2401.1428
PCSat 24 Apr 01:13:35 01:16:14 14° 314° (NW) 01:18:53 145.825 MHz
Uribyol 2 24 Apr 01:35:23 01:38:11 15° 92° (E) 01:40:58 436.500 FM
AO-Echo 24 Apr 01:44:44 01:46:20 12° 91° (E) 01:47:55 ?
UOSAT-12 24 Apr 02:02:35 02:07:09 50° 245° (WSW) 02:11:39 437.025 FM, 437.400 FM
AO-27 24 Apr 02:16:36 02:21:24 37° 98° (E) 02:26:10 436.795 MHz FM
KITSAT 1 24 Apr 02:16:54 02:24:59 72° 300° (WNW) 02:33:07 435.175 FM
OPAL 24 Apr 02:16:57 02:21:51 55° 71° (ENE) 02:26:51 ?
Oscar 19 24 Apr 02:19:08 02:24:22 79° 103° (ESE) 02:29:33 437.125 CW, 437.150 USB
ITAMSAT 1 24 Apr 02:25:50 02:30:48 45° 100° (E) 02:35:45 435.822 SSB
Oscar 16 24 Apr 02:28:21 02:33:34 79° 285° (WNW) 02:38:44 437.025 USB, Beacon 2401.1428
Gurwin Techsat 1B 24 Apr 02:38:15 02:41:50 18° 93° (E) 02:45:23 435.225 FM
Uribyol 2 24 Apr 03:12:54 03:17:58 58° 287° (WNW) 03:23:03 436.500 FM
JAS-1B 24 Apr 03:15:06 03:18:15 15° 94° (E) 03:21:30 435.800 - 435.900 CW/SSB
AO-Echo 24 Apr 03:20:51 03:25:29 58° 286° (WNW) 03:30:04 ?
TMSAT-1 24 Apr 03:22:12 03:27:01 35° 97° (E) 03:31:48 436.925 FM
AO-7 24 Apr 03:37:50 03:42:14 15° 92° (E) 03:46:37 29.400 - 29.500 MHz
Uosat F 24 Apr 03:44:43 03:48:08 18° 94° (E) 03:51:33 435.120 FM
AO-27 24 Apr 03:56:38 04:00:39 23° 293° (WNW) 04:04:41 436.795 MHz FM
OPAL 24 Apr 03:58:13 04:01:03 15° 266° (W) 04:03:54 ?
Oscar 19 24 Apr 04:01:15 04:02:59 12° 298° (WNW) 04:04:43 437.125 CW, 437.150 USB
ITAMSAT 1 24 Apr 04:06:18 04:09:56 20° 295° (WNW) 04:13:33 435.822 SSB
KITSAT 1 24 Apr 04:16:54 04:21:54 17° 322° (NW) 04:26:56 435.175 FM
Gurwin Techsat 1B 24 Apr 04:16:56 04:22:01 48° 288° (WNW) 04:27:05 435.225 FM
RS-15 24 Apr 04:28:06 04:36:58 27° 104° (ESE) 04:45:33 29.354 - 29.394 USB, Beacon 29.352 USB
TMSAT-1 24 Apr 05:02:26 05:06:44 26° 292° (WNW) 05:11:01 436.925 FM
JAS-1B 24 Apr 05:03:39 05:09:15 61° 287° (WNW) 05:15:21 435.800 - 435.900 CW/SSB
AO-40 24 Apr 05:04:10 11:04:18 41° 174° (S) 13:34:31 Beacon 2401.320
STRAND 1 24 Apr 05:07:34 05:08:48 11° 61° (ENE) 05:10:03 ?
PANSAT 24 Apr 05:08:34 05:09:33 11° 159° (SSE) 05:10:33 not established
Uosat F 24 Apr 05:22:22 05:27:05 43° 289° (WNW) 05:31:47 435.120 FM
AO-7 24 Apr 05:27:32 05:35:55 89° 108° (ESE) 05:44:16 29.400 - 29.500 MHz
MaSat-1 24 Apr 05:29:24 05:32:06 24° 64° (ENE) 05:35:12 437.345 MHz
JAS-2 24 Apr 06:15:14 06:16:36 11° 92° (E) 06:18:00 435.800 - 435.900 CW/SSB, 435.910 FM
Hamsat 24 Apr 06:22:09 06:26:08 34° 97° (E) 06:30:06 145.90 MHz
RS-15 24 Apr 06:36:56 06:48:17 73° 302° (WNW) 06:59:18 29.354 - 29.394 USB, Beacon 29.352 USB
STRAND 1 24 Apr 06:42:09 06:47:16 82° 257° (WSW) 06:52:24 ?
PANSAT 24 Apr 06:46:06 06:49:10 22° 171° (S) 06:52:14 not established
MaSat-1 24 Apr 07:08:13 07:10:20 16° 251° (WSW) 07:12:41 437.345 MHz
AO-7 24 Apr 07:22:16 07:27:37 19° 306° (NW) 07:32:59 29.400 - 29.500 MHz
SO-67 24 Apr 07:27:30 07:30:38 30° 97° (E) 07:33:45 435.3500 MHz FM
Sapphire 24 Apr 07:34:14 07:37:43 17° 49° (NE) 07:41:09 437.095 MHz 1200 baud AX-25 AFSK
JAS-2 24 Apr 07:56:24 08:02:03 85° 284° (WNW) 08:08:24 435.800 - 435.900 CW/SSB, 435.910 FM
Hamsat 24 Apr 07:58:49 08:01:51 19° 292° (WNW) 08:04:52 145.90 MHz
Oscar 10/S400 24 Apr 08:08:08 09:17:52 73° 196° (SSW) 18:16:49 145.825 - 145.975 CW/USB, Beacon 145.810 USB
PCSat 24 Apr 08:17:32 08:22:37 40° 57° (ENE) 08:27:40 145.825 MHz
PANSAT 24 Apr 08:25:42 08:28:55 25° 184° (S) 08:32:08 not established
Saudisat 1A 24 Apr 08:52:58 08:56:48 29° 113° (ESE) 09:00:39 436.775 MHz
RS-15 24 Apr 08:54:50 09:02:55 22° 328° (NNW) 09:10:55 29.354 - 29.394 USB, Beacon 29.352 USB
SO-67 24 Apr 09:01:56 09:03:28 13° 291° (WNW) 09:05:00 435.3500 MHz FM
Sapphire 24 Apr 09:16:15 09:21:38 68° 246° (WSW) 09:26:59 437.095 MHz 1200 baud AX-25 AFSK
JAS-2 24 Apr 09:45:43 09:46:29 10° 298° (WNW) 09:47:16 435.800 - 435.900 CW/SSB, 435.910 FM
Oscar 11 24 Apr 09:50:56 09:54:44 29° 97° (E) 09:58:31 145.825 FM, Beacon 2401.500 USB
HO-68 24 Apr 09:52:12 09:59:24 73° 104° (ESE) 10:06:34 435.675 MHz FM
FUNcube-1 24 Apr 09:59:53 10:00:11 10° 92° (E) 10:00:29 145.950 - 145.970 MHz USB
PCSat 24 Apr 10:01:27 10:05:46 25° 253° (WSW) 10:10:05 145.825 MHz
PANSAT 24 Apr 10:06:20 10:08:36 15° 197° (SSW) 10:10:51 not established
KITSAT 1 24 Apr 10:13:27 10:20:50 37° 51° (NE) 10:28:09 435.175 FM
Saudisat 1A 24 Apr 10:32:35 10:36:21 26° 308° (NW) 10:40:09 436.775 MHz
RS-15 24 Apr 11:17:09 11:21:33 13° 5° (N) 11:25:58 29.354 - 29.394 USB, Beacon 29.352 USB
Oscar 11 24 Apr 11:27:26 11:30:45 22° 291° (WNW) 11:34:03 145.825 FM, Beacon 2401.500 USB
FUNcube-1 24 Apr 11:32:37 11:36:53 59° 285° (WNW) 11:41:14 145.950 - 145.970 MHz USB
HO-68 24 Apr 11:41:27 11:46:21 20° 301° (WNW) 11:51:14 435.675 MHz FM
ISS 24 Apr 11:53:20 11:55:12 14° 128° (SE) 11:57:04 145.800 FM
Oscar 16 24 Apr 12:06:53 12:09:05 13° 62° (ENE) 12:11:17 437.025 USB, Beacon 2401.1428
KITSAT 1 24 Apr 12:08:42 12:16:21 48° 250° (WSW) 12:23:57 435.175 FM
SO-50 24 Apr 12:43:11 12:44:21 11° 107° (ESE) 12:45:31 436.795 FM
Uribyol 2 24 Apr 12:50:50 12:54:13 18° 65° (ENE) 12:57:37 436.500 FM
AO-Echo 24 Apr 12:54:49 12:57:32 15° 65° (ENE) 13:00:13 ?
ISS 24 Apr 13:28:23 13:31:36 47° 322° (NW) 13:34:50 145.800 FM
RS-15 24 Apr 13:30:03 13:39:18 30° 40° (NE) 13:48:39 29.354 - 29.394 USB, Beacon 29.352 USB
AO-27 24 Apr 13:32:10 13:37:04 44° 71° (ENE) 13:41:58 436.795 MHz FM
Oscar 19 24 Apr 13:33:19 13:38:28 86° 76° (ENE) 13:43:40 437.125 CW, 437.150 USB
ITAMSAT 1 24 Apr 13:41:15 13:46:16 53° 73° (ENE) 13:51:17 435.822 SSB
Oscar 16 24 Apr 13:42:39 13:47:46 71° 258° (WSW) 13:52:56 437.025 USB, Beacon 2401.1428
Gurwin Techsat 1B 24 Apr 13:56:48 14:00:53 23° 67° (ENE) 14:04:58 435.225 FM
JAS-1B 24 Apr 13:59:21 14:02:36 14° 62° (ENE) 14:05:39 435.800 - 435.900 CW/SSB
SO-50 24 Apr 14:19:53 14:24:19 64° 302° (WNW) 14:28:47 436.795 FM
Uribyol 2 24 Apr 14:28:18 14:33:17 49° 260° (W) 14:38:17 436.500 FM
OPAL 24 Apr 14:30:35 14:34:11 19° 96° (E) 14:37:45 ?
AO-Echo 24 Apr 14:30:37 14:35:47 62° 259° (W) 14:40:49 ?
AO-7 24 Apr 14:34:27 14:39:49 19° 55° (NE) 14:45:11 29.400 - 29.500 MHz
TMSAT-1 24 Apr 14:40:21 14:45:17 42° 71° (ENE) 14:50:15 436.925 FM
Uosat F 24 Apr 14:55:41 14:59:19 20° 66° (ENE) 15:02:57 435.120 FM
AO-27 24 Apr 15:13:05 15:16:44 19° 266° (W) 15:20:24 436.795 MHz FM
ITAMSAT 1 24 Apr 15:22:58 15:26:02 16° 267° (W) 15:29:06 435.822 SSB
Gurwin Techsat 1B 24 Apr 15:35:38 15:40:34 40° 262° (W) 15:45:32 435.225 FM
RS-15 24 Apr 15:41:52 15:52:51 81° 244° (WSW) 16:04:11 29.354 - 29.394 USB, Beacon 29.352 USB
JAS-1B 24 Apr 15:44:37 15:52:37 87° 75° (ENE) 15:59:16 435.800 - 435.900 CW/SSB
OPAL 24 Apr 16:08:15 16:13:15 47° 290° (WNW) 16:18:12 ?
UOSAT-12 24 Apr 16:10:57 16:15:29 88° 300° (WNW) 16:20:08 437.025 FM, 437.400 FM
TMSAT-1 24 Apr 16:21:26 16:25:20 21° 266° (W) 16:29:16 436.925 FM
AO-7 24 Apr 16:23:15 16:31:32 88° 253° (WSW) 16:39:52 29.400 - 29.500 MHz
Uosat F 24 Apr 16:33:04 16:37:47 41° 261° (W) 16:42:32 435.120 FM
Hamsat 24 Apr 17:14:06 17:16:57 18° 68° (ENE) 17:19:49 145.90 MHz
Saudisat 1A 24 Apr 17:23:16 17:25:26 13° 45° (NE) 17:27:35 436.775 MHz
JAS-1B 24 Apr 17:40:00 17:43:31 14° 267° (W) 17:46:48 435.800 - 435.900 CW/SSB
UOSAT-12 24 Apr 17:54:53 17:56:20 11° 318° (NW) 17:57:47 437.025 FM, 437.400 FM
RS-15 24 Apr 17:57:49 18:03:27 16° 261° (W) 18:09:12 29.354 - 29.394 USB, Beacon 29.352 USB
JAS-2 24 Apr 18:07:28 18:12:07 27° 69° (ENE) 18:16:31 435.800 - 435.900 CW/SSB, 435.910 FM
AO-7 24 Apr 18:21:05 18:25:15 15° 269° (W) 18:29:27 29.400 - 29.500 MHz
ISS 24 Apr 18:24:04 18:25:15 11° 22° (NNE) 18:26:25 145.800 FM
Hamsat 24 Apr 18:48:52 18:52:40 33° 263° (W) 18:56:30 145.90 MHz
STRAND 1 24 Apr 18:55:42 19:00:31 41° 99° (E) 19:05:19 ?
Saudisat 1A 24 Apr 19:01:07 19:05:30 68° 242° (WSW) 19:09:49 436.775 MHz
MaSat-1 24 Apr 19:30:25 19:32:34 19° 110° (ESE) 19:34:34 437.345 MHz
SO-67 24 Apr 19:31:10 19:34:34 52° 260° (W) 19:38:00 435.3500 MHz FM
JAS-2 24 Apr 19:52:06 19:57:08 32° 262° (W) 20:01:51 435.800 - 435.900 CW/SSB, 435.910 FM
ISS 24 Apr 19:59:13 20:02:32 61° 39° (NE) 20:05:50 145.800 FM
HO-68 24 Apr 20:17:56 20:24:31 42° 67° (ENE) 20:31:07 435.675 MHz FM
STRAND 1 24 Apr 20:35:41 20:39:23 21° 294° (WNW) 20:43:05 ?
Oscar 11 24 Apr 20:44:29 20:47:18 17° 67° (ENE) 20:50:06 145.825 FM, Beacon 2401.500 USB
ISS 24 Apr 21:37:51 21:38:50 11° 234° (SW) 21:39:50 145.800 FM
HO-68 24 Apr 22:05:56 22:12:13 33° 262° (W) 22:18:34 435.675 MHz FM
Sapphire 24 Apr 22:13:25 22:17:34 23° 106° (ESE) 22:21:43 437.095 MHz 1200 baud AX-25 AFSK
Oscar 11 24 Apr 22:19:13 22:23:11 36° 262° (W) 22:27:10 145.825 FM, Beacon 2401.500 USB
FUNcube-1 24 Apr 22:26:37 22:30:47 78° 77° (ENE) 22:34:57 145.950 - 145.970 MHz USB
SO-50 24 Apr 22:53:56 22:58:30 53° 57° (ENE) 23:03:08 436.795 FM
PCSat 24 Apr 22:56:18 23:01:37 63° 113° (ESE) 23:06:58 145.825 MHz
Sapphire 24 Apr 23:55:33 00:00:40 42° 302° (WNW) 00:05:49 437.095 MHz 1200 baud AX-25 AFSK
